Location: Zagreb
(45.8000°N, 16.0000°E)
Time: 14:11:40
(UTC+02:00)

Tiros 1 despin weight - Pass Details

Date: 16 August 2022
Orbit: 590 x 639 km, 48.2° (Epoch: 23 September)

Event Time Altitude Azimuth Distance (km) Brightness Sun altitude
Rises 12:42:00 0° 254° (WSW) 2,865 ? 57.6°
Reaches altitude 10° 12:44:19 10° 255° (WSW) 1,954 ? 57.7°
Maximum altitude 12:48:48 83° 342° (NNW) 609 ? 57.8°
Drops below altitude 10° 12:53:15 10° 73° (ENE) 1,932 ? 57.8°
Sets 12:55:31 0° 74° (ENE) 2,830 ? 57.8°
